• En Estados Unidos
  • Lista de países
  • Para 7 días
  • Temperatura del agua
  • Mapa Satelital
  • El tiempo en el mapa
  • Informadores
  • user-avatar
    Iniciar sesión

    Tiempo cada hora Batina

    Hoy, 25 Septiembre, Martes

    Tiempo Temperatura Precipitaciones Viento Presión Humedad
    00:00 +22°C° 0 mm 1 mps 676 mmHg 58%
    01:00 +22°C° 0 mm 1 mps 675 mmHg 60%
    02:00 +21°C° 0 mm 1 mps 675 mmHg 63%
    03:00 +21°C° 0 mm 1 mps 675 mmHg 65%
    04:00 +21°C° 0 mm 1 mps 675 mmHg 66%
    05:00 +21°C° 0 mm 1 mps 675 mmHg 68%
    06:00 +21°C° 0 mm 1 mps 675 mmHg 69%
    07:00 +22°C° 0 mm 1 mps 676 mmHg 63%
    08:00 +23°C° 0 mm 1 mps 676 mmHg 58%
    09:00 +24°C° 0 mm 1 mps 677 mmHg 52%
    10:00 +25°C° 0 mm 1 mps 677 mmHg 48%
    11:00 +26°C° 0 mm 2 mps 677 mmHg 44%
    12:00 +27°C° 0 mm 2 mps 677 mmHg 39%
    13:00 +27°C° 0 mm 2 mps 677 mmHg 38%
    14:00 +27°C° 0 mm 2 mps 676 mmHg 37%
    15:00 +27°C° 0 mm 2 mps 676 mmHg 36%
    16:00 +27°C° 0 mm 3 mps 676 mmHg 39%
    17:00 +26°C° 0 mm 3 mps 676 mmHg 42%
    18:00 +25°C° 0 mm 3 mps 676 mmHg 45%
    19:00 +25°C° 0.5 mm 3 mps 676 mmHg 50%
    20:00 +24°C° 0.5 mm 3 mps 676 mmHg 55%
    21:00 +23°C° 0.5 mm 2 mps 676 mmHg 60%
    22:00 +21°C° 0.3 mm 2 mps 676 mmHg 62%
    23:00 +21°C° 0.3 mm 2 mps 676 mmHg 65%

    Mañana, 26 Septiembre, Miércoles

    Tiempo Temperatura Precipitaciones Viento Presión Humedad
    00:00 +20°C° 0.3 mm 2 mps 676 mmHg 67%
    01:00 +20°C° 0.5 mm 2 mps 676 mmHg 69%
    02:00 +20°C° 0.5 mm 2 mps 676 mmHg 71%
    03:00 +19°C° 0.5 mm 2 mps 676 mmHg 73%
    04:00 +19°C° 0.5 mm 2 mps 676 mmHg 74%
    05:00 +19°C° 0.5 mm 2 mps 676 mmHg 76%
    06:00 +18°C° 0.5 mm 2 mps 676 mmHg 78%
    07:00 +19°C° 0.3 mm 2 mps 677 mmHg 72%
    08:00 +20°C° 0.3 mm 2 mps 677 mmHg 67%
    09:00 +21°C° 0.3 mm 2 mps 678 mmHg 62%
    10:00 +23°C° 0.3 mm 2 mps 678 mmHg 58%
    11:00 +24°C° 0.3 mm 2 mps 678 mmHg 53%
    12:00 +25°C° 0.3 mm 2 mps 678 mmHg 49%
    13:00 +25°C° 0.3 mm 3 mps 678 mmHg 47%
    14:00 +25°C° 0.3 mm 3 mps 677 mmHg 46%
    15:00 +25°C° 0.3 mm 3 mps 677 mmHg 44%
    16:00 +25°C° 0.1 mm 4 mps 677 mmHg 47%
    17:00 +23°C° 0.1 mm 4 mps 677 mmHg 50%
    18:00 +22°C° 0.1 mm 4 mps 677 mmHg 52%
    19:00 +22°C° 0.1 mm 4 mps 678 mmHg 57%
    20:00 +21°C° 0.1 mm 4 mps 678 mmHg 62%
    21:00 +20°C° 0.1 mm 4 mps 678 mmHg 67%
    22:00 +20°C° 0 mm 4 mps 678 mmHg 69%
    23:00 +19°C° 0 mm 4 mps 678 mmHg 72%

    Pasado mañana, 27 Septiembre, Jueves

    Tiempo Temperatura Precipitaciones Viento Presión Humedad
    00:00 +19°C° 0 mm 3 mps 678 mmHg 74%
    01:00 +19°C° 0 mm 3 mps 678 mmHg 75%
    02:00 +18°C° 0 mm 2 mps 678 mmHg 77%
    03:00 +18°C° 0 mm 2 mps 678 mmHg 78%
    04:00 +18°C° 0 mm 2 mps 678 mmHg 79%
    05:00 +18°C° 0 mm 2 mps 678 mmHg 80%
    06:00 +18°C° 0 mm 1 mps 678 mmHg 81%
    07:00 +19°C° 0 mm 1 mps 678 mmHg 76%
    08:00 +20°C° 0 mm 1 mps 679 mmHg 71%
    09:00 +21°C° 0 mm 1 mps 679 mmHg 66%
    10:00 +21°C° 0.1 mm 1 mps 679 mmHg 62%
    11:00 +22°C° 0.1 mm 1 mps 679 mmHg 58%
    12:00 +23°C° 0.1 mm 2 mps 679 mmHg 55%
    13:00 +23°C° 0.1 mm 2 mps 678 mmHg 52%
    14:00 +24°C° 0.1 mm 2 mps 678 mmHg 50%
    15:00 +24°C° 0.1 mm 2 mps 678 mmHg 48%
    16:00 +24°C° 0.1 mm 3 mps 677 mmHg 48%
    17:00 +22°C° 0.1 mm 3 mps 677 mmHg 49%
    18:00 +22°C° 0.1 mm 3 mps 677 mmHg 49%
    19:00 +21°C° 0 mm 3 mps 677 mmHg 50%
    20:00 +21°C° 0 mm 2 mps 677 mmHg 52%
    21:00 +20°C° 0 mm 2 mps 677 mmHg 53%
    22:00 +20°C° 0 mm 1 mps 677 mmHg 55%
    23:00 +20°C° 0 mm 1 mps 676 mmHg 58%

    28 Septiembre, Viernes

    Tiempo Temperatura Precipitaciones Viento Presión Humedad
    00:00 +17°C° 0 mm 0 mps 676 mmHg 60%
    01:00 +19°C° 0 mm 1 mps 675 mmHg 62%
    02:00 +19°C° 0 mm 1 mps 675 mmHg 64%
    03:00 +18°C° 0 mm 1 mps 674 mmHg 65%
    04:00 +18°C° 0 mm 1 mps 674 mmHg 67%
    05:00 +18°C° 0 mm 1 mps 674 mmHg 68%
    06:00 +18°C° 0 mm 1 mps 674 mmHg 70%
    07:00 +18°C° 0 mm 2 mps 675 mmHg 66%
    08:00 +19°C° 0 mm 2 mps 675 mmHg 62%
    09:00 +20°C° 0 mm 2 mps 675 mmHg 58%
    10:00 +20°C° 0 mm 2 mps 675 mmHg 54%
    11:00 +21°C° 0 mm 3 mps 675 mmHg 50%
    12:00 +22°C° 0 mm 3 mps 675 mmHg 46%
    13:00 +24°C° 0 mm 3 mps 675 mmHg 43%
    14:00 +24°C° 0 mm 3 mps 674 mmHg 40%
    15:00 +25°C° 0 mm 3 mps 674 mmHg 38%
    16:00 +24°C° 0 mm 3 mps 674 mmHg 39%
    17:00 +22°C° 0 mm 3 mps 674 mmHg 40%
    18:00 +22°C° 0 mm 3 mps 674 mmHg 42%
    19:00 +21°C° 0 mm 3 mps 674 mmHg 44%
    20:00 +20°C° 0 mm 2 mps 674 mmHg 46%
    21:00 +21°C° 0 mm 1 mps 674 mmHg 49%
    22:00 +20°C° 0 mm 1 mps 673 mmHg 51%
    23:00 +20°C° 0 mm 1 mps 673 mmHg 53%

    29 Septiembre, Sábado

    Tiempo Temperatura Precipitaciones Viento Presión Humedad
    00:00 +17°C° 0 mm 0 mps 673 mmHg 55%
    01:00 +17°C° 0 mm 0 mps 672 mmHg 56%
    02:00 +16°C° 0 mm 0 mps 672 mmHg 57%
    03:00 +16°C° 0 mm 0 mps 672 mmHg 58%
    04:00 +16°C° 0 mm 0 mps 672 mmHg 58%
    05:00 +18°C° 0 mm 1 mps 672 mmHg 58%
    06:00 +18°C° 0 mm 1 mps 672 mmHg 58%
    07:00 +19°C° 0 mm 1 mps 673 mmHg 55%
    08:00 +20°C° 0 mm 2 mps 673 mmHg 51%
    09:00 +21°C° 0 mm 2 mps 674 mmHg 47%
    10:00 +23°C° 0 mm 2 mps 674 mmHg 44%
    11:00 +24°C° 0 mm 3 mps 674 mmHg 41%
    12:00 +25°C° 0 mm 3 mps 674 mmHg 39%
    13:00 +25°C° 0 mm 3 mps 673 mmHg 37%
    14:00 +26°C° 0 mm 3 mps 673 mmHg 36%
    15:00 +26°C° 0 mm 3 mps 673 mmHg 35%
    16:00 +25°C° 0 mm 3 mps 673 mmHg 37%
    17:00 +24°C° 0 mm 2 mps 673 mmHg 39%
    18:00 +24°C° 0 mm 2 mps 673 mmHg 42%
    19:00 +23°C° 0 mm 2 mps 673 mmHg 45%
    20:00 +22°C° 0 mm 1 mps 673 mmHg 47%
    21:00 +22°C° 0 mm 1 mps 673 mmHg 50%
    22:00 +21°C° 0 mm 1 mps 673 mmHg 52%
    23:00 +21°C° 0 mm 1 mps 673 mmHg 53%

    30 Septiembre, Domingo

    Tiempo Temperatura Precipitaciones Viento Presión Humedad
    00:00 +20°C° 0 mm 1 mps 673 mmHg 55%
    01:00 +20°C° 0 mm 1 mps 673 mmHg 55%
    02:00 +20°C° 0 mm 1 mps 673 mmHg 56%
    03:00 +19°C° 0 mm 1 mps 672 mmHg 57%
    04:00 +19°C° 0 mm 1 mps 673 mmHg 57%
    05:00 +19°C° 0 mm 1 mps 673 mmHg 56%
    06:00 +18°C° 0 mm 2 mps 673 mmHg 56%
    07:00 +20°C° 0 mm 2 mps 674 mmHg 50%
    08:00 +21°C° 0 mm 2 mps 674 mmHg 44%
    09:00 +24°C° 0 mm 3 mps 675 mmHg 39%
    10:00 +24°C° 0 mm 3 mps 675 mmHg 36%
    11:00 +25°C° 0 mm 3 mps 675 mmHg 34%
    12:00 +26°C° 0 mm 3 mps 675 mmHg 31%
    13:00 +26°C° 0 mm 3 mps 674 mmHg 31%
    14:00 +26°C° 0 mm 3 mps 674 mmHg 30%
    15:00 +27°C° 0 mm 3 mps 674 mmHg 30%
    16:00 +26°C° 0 mm 3 mps 674 mmHg 33%
    17:00 +25°C° 0 mm 3 mps 674 mmHg 37%
    18:00 +24°C° 0 mm 3 mps 674 mmHg 40%
    19:00 +22°C° 0 mm 3 mps 674 mmHg 44%
    20:00 +23°C° 0 mm 2 mps 674 mmHg 47%
    21:00 +22°C° 0 mm 1 mps 674 mmHg 51%
    22:00 +21°C° 0 mm 1 mps 674 mmHg 53%
    23:00 +21°C° 0 mm 1 mps 674 mmHg 56%
    Mostrar más